Location: Beadle
(51.4667°N, 109.0000°W)
Time: 07:27:52
(UTC+00:00)

O/OREOS (USA 219) - Visible Passes

Search period start: 25 June 2022 00:00
Search period end: 05 July 2022 00:00
Orbit: 621 x 646 km, 72.0° (Epoch: 22 May)

Date Brightness Start Highest point End Pass type
(mag) Time Alt. Az. Time Alt. Az. Time Alt. Az.
25 Jun ? 06:41:50 10° N 06:44:29 15° NE 06:47:08 10° ENE visible
25 Jun ? 08:20:15 10° NNW 08:24:51 64° ENE 08:29:25 10° SE visible
25 Jun ? 10:00:30 10° NW 10:03:48 20° WSW 10:07:07 10° SSW visible
26 Jun ? 07:03:21 10° N 07:07:03 23° NE 07:10:44 10° E visible
26 Jun ? 08:42:20 10° NNW 08:46:55 68° WSW 08:51:10 12° SSE visible
27 Jun ? 05:47:42 10° NNE 05:48:40 11° NNE 05:49:39 10° NE visible
27 Jun ? 07:25:07 10° NNW 07:29:26 38° NE 07:33:46 10° ESE visible
27 Jun ? 09:04:39 10° NW 09:08:50 34° WSW 09:12:03 15° SSW visible
28 Jun ? 06:08:33 10° N 06:11:23 16° NE 06:14:12 10° ENE visible
28 Jun ? 07:47:03 10° NNW 07:51:40 70° ENE 07:55:38 14° SE visible
28 Jun ? 09:27:28 10° WNW 09:30:35 18° W 09:33:02 12° SW visible
29 Jun ? 06:30:07 10° N 06:33:55 25° NE 06:37:43 10° E visible
29 Jun ? 08:09:10 10° NW 08:13:43 62° WSW 08:16:42 21° S visible
30 Jun ? 05:14:11 10° NNE 05:15:35 11° NNE 05:16:59 10° NE visible
30 Jun ? 06:51:54 10° NNW 06:56:17 41° NE 07:00:26 11° ESE visible
30 Jun ? 08:31:32 10° NW 08:35:36 31° WSW 08:37:50 21° SSW visible
01 Jul ? 05:35:16 10° N 05:38:16 17° NE 05:41:16 10° E visible
01 Jul ? 07:13:51 10° NNW 07:18:29 76° ENE 07:21:37 20° SE visible
01 Jul ? 08:54:27 10° WNW 08:57:20 16° W 08:59:03 14° SW visible
02 Jul ? 05:56:53 10° N 06:00:47 26° NE 06:04:41 10° ESE visible
02 Jul ? 07:36:00 10° NW 07:40:32 56° WSW 07:42:52 27° S visible
03 Jul ? 04:40:46 10° N 04:42:30 12° NNE 04:44:13 10° NE visible
03 Jul ? 06:18:41 10° NNW 06:23:08 45° NE 06:26:46 15° SE visible
03 Jul ? 07:58:25 10° NW 08:02:23 29° WSW 08:04:11 22° SW visible
04 Jul ? 05:02:00 10° N 05:05:09 18° NE 05:08:18 10° E visible
04 Jul ? 06:40:40 10° NNW 06:45:19 83° ENE 06:48:07 24° SSE visible
04 Jul ? 08:21:29 10° WNW 08:24:05 15° W 08:25:32 13° WSW visible
